Location: ??
(35.3149°N, 139.6204°E)
Time: 11:13:48
(UTC+00:00)

Cosmos 1470 - Pass Details

Date: 03 August 2024
Orbit: 481 x 499 km, 82.5° (Epoch: 09 September)

Event Time Altitude Azimuth Distance (km) Brightness Sun altitude
Exits shadow 17:53:58 47° 310° (NW) 677 3.1 -21.4°
Drops below altitude 10° 17:57:11 10° 356° (N) 1,745 5.8 -20.9°
Sets 17:59:18 0° 1° (N) 2,615 6.9 -20.6°
